Flag for Canada Weather past 2 weeks in Timmins, Ontario, Canada

Now
86 °F

Passing clouds.


Feels Like: 87 °F
Forecast: 63 / 87 °F
Wind: 15 mph from South

Location: Timmins

Current Time: Jul 29, 2015 at 1:07:20 PM

Latest Report: Jul 29, 2015 at 12:00 PM


Visibility: 15 mi

Pressure: 29.75 "Hg

Humidity: 49%

Dew point: 64 °F

Location of TimminsLocation

Historic Weather in Timmins — Graph

°F

Timmins temperature yesterday

Maximum temperature yesterday: 91 °F (at 3:00 PM)
Minimum temperature yesterday: 59 °F (at 5:00 AM)
Average temperature yesterday: 76 °F

Past Weeks' High & Low Weather Summary

 TemperatureHumidityPressure
High91 °F (Jul 28, 3:00 PM)100% (Jul 15, 2:00 AM)30.06 "Hg (Jul 15, 2:00 AM)
Low37 °F (Jul 15, 5:00 AM)32% (Jul 23, 4:00 PM)29.39 "Hg (Jul 20, 3:00 PM)
Average65 °F74%29.81 "Hg
* Reported Jul 14 12:00 Noon — Jul 29 12:00 Noon, Timmins, Weather by CustomWeather, © 2015

Note: Actual official high and low records may vary slightly from our data, if they occured in-between our weather recording intervals... More about our weather records

Advertising

Timmins weather history for previous 24 hours

 ConditionsComfort  
Time TempWeatherWind HumidityBarometerVisibility
12:00 PM
Wed, Jul 29
86 °FPassing clouds.15 mph49%29.75 "Hg15 mi
11:00 AM82 °FPassing clouds.14 mph55%29.78 "Hg15 mi
10:00 AM81 °FSunny.13 mph62%29.81 "Hg15 mi
9:00 AM75 °FScattered clouds.10 mph69%29.82 "Hg15 mi
8:00 AM72 °FScattered clouds.8 mph78%29.82 "Hg15 mi
7:00 AM68 °FPartly sunny.7 mph88%29.83 "Hg15 mi
6:00 AM66 °FPassing clouds.5 mph88%29.83 "Hg15 mi
5:00 AM66 °FPassing clouds.6 mph94%29.86 "Hg15 mi
4:00 AM68 °FOvercast.3 mph88%29.88 "Hg15 mi
3:00 AM68 °FOvercast.3 mph88%29.88 "Hg15 mi
2:00 AM66 °FPassing clouds.3 mph94%29.89 "Hg15 mi
1:00 AM66 °FPassing clouds.No wind88%29.90 "Hg15 mi
12:00 AM68 °FPassing clouds.3 mph88%29.91 "Hg15 mi
11:00 PM
Tue, Jul 28
70 °FPassing clouds.3 mph88%29.90 "Hg15 mi
10:00 PM72 °FPartly sunny.3 mph88%29.90 "Hg15 mi
9:00 PM77 °FBroken clouds.2 mph74%29.89 "Hg15 mi
8:00 PM84 °FBroken clouds.3 mph58%29.89 "Hg15 mi
7:00 PM90 °FPartly sunny.5 mph41%29.90 "Hg15 mi
6:00 PM91 °FPartly sunny.8 mph36%29.90 "Hg15 mi
5:00 PM91 °FPartly sunny.9 mph36%29.91 "Hg15 mi
4:00 PM91 °FBroken clouds.9 mph38%29.92 "Hg15 mi
3:00 PM91 °FBroken clouds.10 mph38%29.93 "Hg15 mi
2:00 PM90 °FPartly sunny.7 mph38%29.93 "Hg15 mi
1:00 PM88 °FPartly sunny.5 mph43%29.95 "Hg15 mi
Weather by CustomWeather, © 2015

See weather overviewHow to use our weather pages